Weather History for New York JFK, NY

Change the Weather History Date:

Thursday, February 7, 2013

  Actual Average Record
Temperature  
Mean Temperature 28 °F 34 °F  
Max Temperature 33 °F 40 °F 53 °F (1990)
Min Temperature 23 °F 27 °F 7 °F (1993)
Degree Days  
Heating Degree Days 37 31  
Month to date heating degree days 252 222  
Since 1 July heating degree days 2722 2892  
Cooling Degree Days 0 0  
Month to date cooling degree days 0 0  
Year to date cooling degree days 0 0  
Moisture  
Dew Point 10 °F    
Average Humidity 44    
Maximum Humidity 63    
Minimum Humidity 25    
Precipitation  
Precipitation 0.00 in 0.08 in 1.36 in (1971)
Month to date precipitation 0.06 0.62  
Year to date precipitation 2.45 3.78  
Snow  
Snow 0.00 in 0.30 in 9.30 in (1967)
Month to date snowfall 1.0 2.1  
Since 1 July snowfall 6.8 13.3  
Snow Depth 0.00 in    
Sea Level Pressure  
Sea Level Pressure 30.44 in    
Wind  
Wind Speed 7 mph (NE)    
Max Wind Speed 16 mph    
Max Gust Speed 18 mph    
Visibility 10 miles    
Events      
T = Trace of Precipitation, MM = Missing Value Source: NWS Daily Summary

Daily Weather History Graph

Daily Weather History Graph

Search for Another Location

Airport:

Trip Planner

Search our weather history database for the weather conditions in past years. The results will help you decide how hot, cold, wet, or windy it might be!

Date:

Astronomy

Feb. 07, 2013 Rise Set
Actual Time 6:58 AM EST 5:20 PM EST
Civil Twilight 6:29 AM EST 5:49 PM EST
Nautical Twilight 5:57 AM EST 6:21 PM EST
Astronomical Twilight 5:25 AM EST 6:53 PM EST
Moon 4:36 AM EST (2/7) 2:41 PM EST (2/7)
Length of Visible Light 11h 19m
Length of Day
10h 22m
Waning Crescent, 9% of the Moon is Illuminated
Feb 7
Waning Crescent
Feb 10
New
Feb 17
First Quarter
Feb 25
Full
Mar 4
Last Quarter

Hourly Weather History & Observations

Time (EST) Temp. Windchill Dew Point Humidity Pressure Visibility Wind Dir Wind Speed Gust Speed Precip Events Conditions
12:51 AM 28.0 °F 21.7 °F -2.9 °F 26% 30.37 in 10.0 mi NNW 5.8 mph - N/A   Clear
1:51 AM 27.0 °F - -0.0 °F 31% 30.39 in 10.0 mi Calm Calm - N/A   Clear
2:51 AM 27.0 °F - 5.0 °F 39% 30.40 in 10.0 mi Calm Calm - N/A   Partly Cloudy
3:51 AM 27.0 °F 21.6 °F 9.0 °F 47% 30.42 in 10.0 mi NNE 4.6 mph - N/A   Scattered Clouds
4:51 AM 25.0 °F 19.3 °F 5.0 °F 43% 30.44 in 10.0 mi North 4.6 mph - N/A   Scattered Clouds
5:51 AM 25.0 °F 18.1 °F 6.1 °F 45% 30.45 in 10.0 mi NNE 5.8 mph - N/A   Mostly Cloudy
6:51 AM 26.1 °F 20.5 °F 6.1 °F 43% 30.47 in 10.0 mi NE 4.6 mph - N/A   Mostly Cloudy
7:51 AM 26.1 °F 16.8 °F 7.0 °F 44% 30.51 in 10.0 mi NNE 9.2 mph - N/A   Mostly Cloudy
8:51 AM 27.0 °F 18.0 °F 7.0 °F 43% 30.52 in 10.0 mi NE 9.2 mph - N/A   Overcast
9:51 AM 28.0 °F 18.6 °F 7.0 °F 41% 30.51 in 10.0 mi NNE 10.4 mph - N/A   Overcast
10:51 AM 30.0 °F 21.1 °F 6.1 °F 36% 30.53 in 10.0 mi NNE 10.4 mph - N/A   Mostly Cloudy
11:51 AM 30.0 °F 23.2 °F 7.0 °F 38% 30.50 in 10.0 mi NE 6.9 mph - N/A   Mostly Cloudy
12:51 PM 30.9 °F 27.5 °F 6.1 °F 35% 30.49 in 10.0 mi NE 3.5 mph - N/A   Overcast
1:51 PM 32.0 °F 27.5 °F 5.0 °F 32% 30.48 in 10.0 mi Variable 4.6 mph - N/A   Overcast
2:51 PM 33.1 °F 27.7 °F 3.9 °F 29% 30.46 in 10.0 mi East 5.8 mph - N/A   Mostly Cloudy
3:51 PM 32.0 °F 23.6 °F 7.0 °F 35% 30.45 in 10.0 mi ESE 10.4 mph - N/A   Mostly Cloudy
4:51 PM 30.9 °F 22.8 °F 9.0 °F 40% 30.43 in 10.0 mi East 9.2 mph - N/A   Mostly Cloudy
5:51 PM 30.9 °F 23.5 °F 15.1 °F 52% 30.43 in 10.0 mi ENE 8.1 mph - N/A   Mostly Cloudy
6:51 PM 30.0 °F 22.4 °F 16.0 °F 56% 30.44 in 10.0 mi ENE 8.1 mph - N/A   Mostly Cloudy
7:51 PM 30.9 °F 24.3 °F 17.1 °F 57% 30.44 in 10.0 mi NE 6.9 mph - N/A   Overcast
8:51 PM 30.9 °F 23.5 °F 18.0 °F 59% 30.42 in 10.0 mi NE 8.1 mph - N/A   Mostly Cloudy
9:51 PM 32.0 °F 24.2 °F 19.9 °F 61% 30.41 in 10.0 mi NE 9.2 mph - N/A   Overcast
10:44 PM 32.0 °F 24.2 °F 21.2 °F 64% 30.38 in 10.0 mi NE 9.2 mph - N/A   Overcast
10:51 PM 32.0 °F 24.2 °F 21.0 °F 64% 30.38 in 10.0 mi NE 9.2 mph - N/A   Overcast
11:51 PM 33.1 °F 24.9 °F 23.0 °F 66% 30.34 in 10.0 mi ENE 10.4 mph - N/A   Overcast